Lid_Strength_Index
0 0 1 1 1 0 1 1 1 1 2 2 2 2 3 3 2 2 2 2 2 1 -0 0 0 -0 1 0 0 1 1 2 4 3 1 1 1 1 1 -1 -1 -0 -0
1 1 2 2 2 2 2 2 3 3 3 4 4 4 5 5 4 4 3 3 3 2 2 1 1 1 1 0 1 1 1 1 2 4 2 2 1 1 0 0 -0 -0 -0
2 2 2 2 2 2 2 3 4 4 4 4 4 5 4 4 3 3 2 2 2 1 1 1 1 1 1 1 1 1 1 1 1 2 2 1 1 0 1 0 1 0 -0
3 3 3 3 4 4 4 4 4 4 4 4 3 2 2 1 2 4 4 4 3 2 2 2 2 2 4 3 3 3 2 2 2 2 2 2 1 1 1 2 2 1 1
4 4 5 5 5 5 5 5 4 4 4 3 2 2 2 2 5 5 5 4 4 3 3 4 4 4 5 4 5 4 4 4 4 3 3 2 2 2 2 1 2 1 1
5 5 5 5 4 4 4 3 3 2 2 2 2 2 2 4 8 7 7 5 4 4 4 4 4 4 4 4 4 4 5 5 5 4 4 5 3 2 1 2 2 3 3
4 5 4 4 4 3 3 3 3 2 2 3 3 3 3 5 8 8 7 4 3 3 3 3 3 3 4 5 5 5 5 5 5 5 5 5 4 4 3 5 4 4 4
4 5 4 4 3 3 3 3 3 3 3 3 3 3 4 4 7 8 7 3 3 3 4 3 4 4 4 4 4 5 5 4 4 4 4 4 3 2 3 4 5 6 5
5 4 4 3 3 3 4 4 4 4 4 4 4 3 3 3 7 8 7 5 5 4 4 3 4 4 5 7 5 6 5 5 4 5 6 6 7 7 6 4 6 6 7
5 4 3 3 3 4 4 5 5 4 4 4 4 3 4 4 7 8 7 5 5 5 5 4 5 5 8 9 8 7 8 7 7 6 6 6 7 6 7 5 5 6 6
4 4 3 3 4 5 5 5 5 4 4 4 4 4 3 4 4 8 9 6 7 7 6 5 4 8 9 9 9 8 8 7 8 8 7 7 6 6 5 5 4 4 6
4 4 4 4 5 5 6 5 5 4 5 5 4 4 4 3 6 8 9 10 9 8 7 5 5 8 9 9 8 8 9 9 9 9 9 8 8 7 6 4 4 4 4
4 4 4 4 5 5 5 5 5 5 6 5 5 5 5 4 4 8 9 10 9 8 6 6 8 9 8 6 6 8 6 4 5 9 10 9 8 7 6 6 3 3 2
5 5 4 4 6 5 5 5 5 6 6 6 7 7 6 6 7 8 8 7 7 6 6 4 5 7 7 7 5 5 5 4 5 7 8 7 7 7 6 4 5 5 5
5 5 5 5 5 6 6 5 5 6 8 7 9 9 9 9 9 11 11 9 7 7 7 3 5 7 7 7 7 6 6 4 5 5 6 6 6 6 6 5 5 5 6
5 5 6 6 6 7 6 5 9 9 10 11 11 11 10 11 11 11 11 11 10 9 4 5 6 7 8 8 8 8 7 6 4 4 4 5 6 6 7 6 5 5 6
6 6 6 6 7 6 6 6 5 8 9 11 11 11 12 12 12 11 11 11 10 7 6 7 7 6 7 8 9 9 9 7 6 5 4 4 4 5 6 6 6 6 5
6 10 7 7 6 6 7 6 5 7 8 7 10 11 11 12 12 11 11 8 6 7 7 8 8 7 7 7 7 9 9 8 8 7 6 5 4 4 4 5 5 4 4
6 7 7 5 7 8 7 7 7 8 9 8 8 9 11 12 11 11 10 7 9 8 9 8 6 6 6 5 5 5 6 7 8 8 7 6 5 3 4 3 3 9 7
7 11 9 6 6 7 7 8 9 10 10 10 11 12 12 11 9 8 9 9 9 9 9 9 6 6 6 5 5 5 5 5 7 7 6 5 3 2 3 3 3 3 3
7 7 12 6 8 8 9 10 11 12 11 11 11 12 14 11 11 10 9 9 10 9 9 8 7 6 6 6 7 6 6 7 7 6 4 5 1 2 1 2 2 2 3
7 7 7 8 9 9 9 10 12 12 11 10 11 11 13 10 10 10 7 8 8 7 6 6 7 7 7 8 8 8 8 9 9 7 3 4 2 1 2 1 3 3 3
8 8 8 9 10 11 10 11 12 12 12 11 10 10 10 9 8 8 8 6 6 6 6 7 7 8 7 7 8 8 9 11 11 7 6 4 1 2 1 2 2 2 4
9 9 9 10 11 11 11 12 13 14 13 12 11 9 7 7 7 7 7 6 7 7 7 7 7 8 8 9 9 9 9 11 10 9 8 4 3 3 2 1 2 2 2
9 9 10 11 11 12 11 11 12 13 12 11 11 10 9 9 8 8 8 8 8 8 8 7 7 8 8 9 10 11 13 14 12 12 7 5 5 4 3 3 3 2 2
9 10 10 10 11 10 11 10 10 10 10 10 10 10 10 9 9 9 9 9 8 8 7 8 7 8 10 10 11 13 14 14 12 13 9 6 6 5 5 5 4 4 3